sat.trackr.live / text

‹ back to catalog

STARLINK-35546

NORAD 66240 · 2025-245G

PAYLOAD ACTIVE UNKNOWN

§ Identity

Operator
Country
US
Launch date
2025-10-29
Launch site
AFETR
Launch vehicle
Mass (kg)
RCS (m²)

Purposes: comms

External: N2YO · Heavens-Above · Gunter

§ Orbital elements

Epoch: 2026-05-25T03:15:02.880864Z

Period
94.10 min
Inclination
53.1593°
Eccentricity
0.0001268
Mean motion
15.30207936 rev/d
Perigee alt
474.3 km
Apogee alt
476.1 km
Semi-major
6,853.3 km
B*
7.4380e-4
RAAN
288.6028°
Arg perigee
75.2508°
Mean anomaly
284.8633°
Rev number
3,296

§ Raw data

STARLINK-355461 66240U 25245G   26145.13545001  .00021740  00000+0  74380-3 0  99912 66240  53.1593 288.6028 0001268  75.2508 284.8633 15.30207936 32964

JSON: /api/v1/satellites/66240 · /tle

For live sub-satellite position, see the globe view (requires WebGL).

§ Visibility from observer

Set your observer location to see the next 7 days of passes ≥ 10°. The values pass through the URL so the page stays shareable.

No JS? Fill the form by hand. The geolocation button needs JavaScript.